Regional Weather Roundup
Issued by NWS

Home | Current Version | Previous Version | Graphics & Text | Print | Product List | Glossary On
Versions: 1 2 3 4 5 6 7 8 9 10 11 12 13 14 15 16 17 18 19 20 21 22 23 24 25 26 27 28 29 30 31 32 33 34 35 36 37 38 39 40 41 42 43 44 45 46 47 48 49 50
000
ASUS45 KCYS 010610
RWRWY

WYOMING REGIONAL WEATHER ROUNDUP
NATIONAL WEATHER SERVICE CHEYENNE WY
1200 AM MDT SAT AUG 01 2015

NOTE:  "FAIR" INDICATES FEW OR NO CLOUDS BELOW 12,000 FEET
WITH NO SIGNIFICANT WEATHER AND/OR OBSTRUCTIONS TO VISIBILITY.

WYZ001-010700-
YELLOWSTONE NATIONAL PARK

CITY           SKY/WX    TMP DP  RH WIND       PRES   REMARKS
LK YELLOWSTONE   N/A     48  33  56 W3        30.47R
6HR MIN TEMP:  48; 6HR MAX TEMP:  75;

W YELLOWSTONE  NOT AVBL

$$
WYZ002>013-054>058-071-098>099-010700-
NORTHERN WYOMING

CITY           SKY/WX    TMP DP  RH WIND       PRES   REMARKS
JACKSON        NOT AVBL
CODY           FAIR      72  27  18 NW6       30.23S
GREYBULL       FAIR      77  35  21 NW9       30.09S
6HR MIN TEMP:  77; 6HR MAX TEMP:  96;

WORLAND        FAIR      66  31  27 CALM      30.11S
6HR MIN TEMP:  66; 6HR MAX TEMP:  92;

SHERIDAN       FAIR      64  46  52 NE6       30.12S
6HR MIN TEMP:  62; 6HR MAX TEMP:  94;

BUFFALO        FAIR      68  38  33 W9        30.20F
6HR MIN TEMP:  66; 6HR MAX TEMP:  90;

GILLETTE         N/A     71  49  45 S12       30.14S
6HR MIN TEMP:  71; 6HR MAX TEMP:  92;

HULETT         FAIR      72  50  46 CALM      30.14F
NEWCASTLE      FAIR      73  43  33 MISG      30.15F

$$
WYZ014>020-022>026-101>103-010700-
CENTRAL WYOMING

CITY           SKY/WX    TMP DP  RH WIND       PRES   REMARKS
BIG PINEY      FAIR      57  30  35 N7        30.35S
6HR MIN TEMP:  57; 6HR MAX TEMP:  85;

PINEDALE       FAIR      52  34  50 NW5       30.36S
DUBOIS         FAIR      59  30  33 NW7       30.37S
LANDER         FAIR      71  31  22 W10       30.21S
6HR MIN TEMP:  70; 6HR MAX TEMP:  91;

RIVERTON       FAIR      73  27  18 NE3       30.21S
6HR MIN TEMP:  73; 6HR MAX TEMP:  91;

CASPER         FAIR      64  39  39 W8        30.18F
6HR MIN TEMP:  60; 6HR MAX TEMP:  92;

DOUGLAS        FAIR      71  47  42 SE10      30.19S
6HR MIN TEMP:  70; 6HR MAX TEMP:  92;


$$
WYZ021-027>030-104>119-010700-
SOUTHERN WYOMING

CITY           SKY/WX    TMP DP  RH WIND       PRES   REMARKS
EVANSTON       FAIR      68  27  21 CALM      30.37S
6HR MIN TEMP:  68; 6HR MAX TEMP:  84;

KEMMERER       FAIR      61  32  33 N10       30.37F
FORT BRIDGER   CLEAR     66  25  20 W7        30.38S
ROCK SPRINGS   FAIR      64  20  18 SW7       30.29F
6HR MIN TEMP:  64; 6HR MAX TEMP:  85;

DIXON          FAIR      62  28  27 NE3       30.29S
RAWLINS        FAIR      58  21  24 CALM      30.29S
6HR MIN TEMP:  57; 6HR MAX TEMP:  87;

SARATOGA       FAIR      68  41  37 S10G18    30.31F
LARAMIE        FAIR      59  46  62 S7        30.34F
6HR MIN TEMP:  59; 6HR MAX TEMP:  75; 6HR PCP: TRACE;

CHEYENNE       FAIR      65  49  56 SE9       30.28F
6HR MIN TEMP:  65; 6HR MAX TEMP:  80;

TORRINGTON     FAIR      66  55  67 SE7       30.14F
6HR MIN TEMP:  66; 6HR MAX TEMP:  89;

PINE BLUFFS    FAIR      70  50  49 S10       30.24S

$$


USA.gov is the U.S. government's official web portal to all federal, state and local government web resources and services.